Miscellaneous Local Product
Issued by NWS North Platte, NE

Home | Current Version | Previous Version | Text Only | Print | Product List | Glossary On
Versions: 1 2 3 4 5 6 7 8 9 10 11 12 13 14 15 16 17 18 19 20 21 22 23 24 25 26 27 28 29 30 31 32 33 34 35 36 37 38 39 40 41 42 43 44 45 46 47 48 49 50
498
AXUS43 KLBF 281210
MISLBF


WESTERN AND NORTH CENTRAL NEBRASKA HOURLY WEATHER ROUNDUP
NATIONAL WEATHER SERVICE NORTH PLATTE NE
700 AM CDT FRI APR 28 2017

NOTE: "FAIR" INDICATES FEW OR NO CLOUDS BELOW 12,000 FEET WITH NO
SIGNIFICANT WEATHER AND/OR OBSTRUCTIONS TO VISIBILITY.

NOTE: STATIONS NOT REPORTING VARIABLES SUCH AS SKY/WEATHER OR
PRESSURE ARE PROVIDED BY RAWS AND APRS NETWORKS AND ARE NOT UNDER
NATIONAL WEATHER SERVICE QUALITY CONTROL.

...OBSERVATIONS IN AND NEAR THE EASTERN PANHANDLE OF NEBRASKA...

CITY           SKY/WX    TMP DP  RH WIND       PRES   REMARKS
PINE RIDGE     LGT SNOW  34  33  96 E15       29.74R FOG     WCI  24
CHADRON        LGT RAIN  36  34  92 E15       29.71R WCI  27
ALLIANCE       LGT SNOW  33  32  96 E9        29.66R VSB 1   WCI  25
SIDNEY         MIX PCPN  33  32  96 E8        29.63R WCI  26
CRESCENT LAKE    N/A     50  28  43 E5          N/A
$$

...OBSERVATIONS IN NORTHERN NEBRASKA AND FAR SOUTHERN SOUTH DAKOTA...

CITY           SKY/WX    TMP DP  RH WIND       PRES   REMARKS
WINNER         FAIR      35  29  78 E8        29.82R WCI  29
VALENTINE      CLOUDY    39  28  64 E14       29.79R WCI  31
THEDFORD       LGT SNOW  34  33  97 E14       29.73S VSB 1   WCI  24
AINSWORTH      LGT SNOW  35  33  92 E12       29.79R WCI  27
O`NEILL        CLOUDY    36  31  82 E12       29.81R WCI  27
ORD            RAIN      39  35  86 E16       29.73R WCI  30
BROKEN BOW     RAIN      39  50 100 E14       29.69R WCI  31
VALENTINE NWR    N/A     34  32  93 E13         N/A  WCI  25
HALSEY           N/A     34  33  98 NE7G16      N/A  WCI  28
BUTTE            N/A     33  29  86 CALM        N/A
CHAMBERS         N/A     35  32  89 E7          N/A  WCI  29
EWING            N/A     35  31  84 E12         N/A  WCI  27
$$

...OBSERVATIONS IN SOUTHWEST NEBRASKA AND FAR NORTHEAST COLORADO...

CITY           SKY/WX    TMP DP  RH WIND       PRES   REMARKS
HOLYOKE        CLOUDY    37  36  93 N7        29.63S WCI  32
IMPERIAL       LGT RAIN  37  35  92 NE13      29.64R WCI  29
OGALLALA       FLURRIES  34  33  97 E6        29.67R WCI  29
NORTH PLATTE   RAIN      39  38  96 E10       29.66F WCI  32
MCCOOK         LGT RAIN  43  43 100 NE14      29.59S FOG
LEXINGTON      LGT RAIN  42  40  91 NE10G16   29.64S
STAPLETON        N/A     36  35  95 E6G17       N/A  WCI  31
GOTHENBURG       N/A     40  37  88 E8          N/A  WCI  34
CALLAWAY         N/A     40  38  94 E12         N/A  WCI  33
$$

...OBSERVATIONS IN CENTRAL LINCOLN COUNTY AREA...

CITY           SKY/WX    TMP DP  RH WIND       PRES   REMARKS
N.P. AIRPORT   RAIN      39  38  96 E10       29.66F WCI  32
N.P. DOWNTOWN    N/A     37  35  94 CALM        N/A
N.P. SOUTHEAST   N/A     37  35  92 CALM        N/A
N.P. HILLCREST   N/A     38  36  93 E14         N/A  WCI  30
$$

...SOME OBSERVATIONS FROM AROUND THE REGION...

CITY           SKY/WX    TMP DP  RH WIND       PRES   REMARKS
DENVER         PTCLDY    34  17  50 W10       29.62R WCI  26
LIMON          CLEAR     24  23  96 CALM      29.65R
ASPEN          CLOUDY    25  21  85 S6        29.72R WCI  18
LARAMIE        CLEAR     25  18  74 SW13      29.62R WCI  14
CASPER         LGT SNOW  31  30  96 N13       29.68R FOG     WCI  21
CHEYENNE       CLOUDY    30  23  75 W6        29.62S WCI  24
SCOTTSBLUFF    LGT SNOW  33  31  92 E10       29.65R FOG     WCI  25
GRAND ISLAND   LGT RAIN  41  41 100 NE17      29.70R FOG
OMAHA          RAIN      39  33  79 NE10      29.80R WCI  32
SIOUX FALLS    CLOUDY    27  26  96 NE3       29.87R
PIERRE         CLOUDY    28  24  85 NE7       29.87R WCI  21
RAPID CITY     CLOUDY    35  30  82 N9        29.81R WCI  28
BISMARCK       CLEAR     26  24  92 CALM      29.96R
KANSAS CITY    LGT RAIN  50  49  96 E16       29.66F FOG
HILL CITY      CLOUDY    47  47 100 CALM      29.59S FOG
WICHITA        CLOUDY    52  51  97 CALM      29.57R
DODGE CITY     CLEAR     40  38  93 NW9       29.60R WCI  34
OKLAHOMA CITY  CLOUDY    55  52  89 CALM      29.58R
DALLAS         MOCLDY    70  64  81 S15G24    29.54R
AMARILLO       CLOUDY    46  41  82 W12       29.67R
$$




USA.gov is the U.S. government's official web portal to all federal, state and local government web resources and services.